This demonstration page uses our WeatherBlox Daily Observations layout. Learn more.

Left ArrowRight Arrow

39.08367, -84.50855

Hourly Observations for March 7, 2016

Temp ( °F °C ) Dew Point ( °F °C ) Humidity (%) Winds ( mph kmh ) Pressure ( in mb ) Visibility ( mi km ) Precip ( " mm )
12:53 am 00:53 Clear 39 3.9 35 1.7 86 86 NW 3 6 30.13 1020 10 16 N/A
1:53 am 01:53 Clear 38 3.3 34 1.1 86 86 SW 5 7 30.11 1020 10 16 N/A
2:53 am 02:53 Clear 38 3.3 35 1.7 89 89 W 7 11 30.10 1019 10 16 N/A
3:53 am 03:53 Clear 38 3.3 36 2.2 93 93 N N/A 30.10 1019 10 16 N/A
4:53 am 04:53 Clear 37 2.8 36 2.2 96 96 SSE 3 6 30.11 1020 10 16 N/A
5:53 am 05:53 Clear 39 3.9 36 2.2 89 89 N N/A 30.12 1020 10 16 N/A
6:53 am 06:53 Clear 38 3.3 35 1.7 89 89 N N/A 30.14 1021 10 16 N/A
7:53 am 07:53 Sunny 39 3.9 36 2.2 89 89 N N/A 30.14 1021 10 16 N/A
8:53 am 08:53 Mostly Sunny 45 7.2 38 3.3 77 77 WSW 5 7 30.15 1021 10 16 N/A
9:53 am 09:53 Sunny with Light Rain 54 12.2 37 2.8 53 53 SSW 9 15 30.15 1021 10 16 N/A
10:53 am 10:53 Sunny 60 15.6 35 1.7 39 39 SSW 14 22 30.13 1020 10 16 N/A
11:53 am 11:53 Sunny 61 16.1 36 2.2 39 39 SSW 14 22 30.13 1020 10 16 N/A
12:53 pm 12:53 Sunny 63 17.2 36 2.2 37 37 SW 16 26 30.12 1020 10 16 N/A
1:53 pm 13:53 Sunny 64 17.8 37 2.8 37 37 SSW 16 26 30.09 1019 10 16 N/A
2:53 pm 14:53 Sunny 63 17.2 36 2.2 37 37 SSW 17 28 30.08 1019 10 16 N/A
3:53 pm 15:53 Mostly Cloudy 61 16.1 37 2.8 41 41 S 10 17 30.06 1018 10 16 N/A
4:53 pm 16:53 Sunny 61 16.1 37 2.8 41 41 S 8 13 30.05 1018 10 16 N/A
5:53 pm 17:53 Sunny 60 15.6 38 3.3 44 44 SSW 8 13 30.06 1018 10 16 N/A
6:53 pm 18:53 Clear 57 13.9 36 2.2 45 45 S 9 15 30.06 1018 10 16 N/A
7:53 pm 19:53 Clear 57 13.9 38 3.3 49 49 S 6 9 30.06 1018 10 16 N/A
8:53 pm 20:53 Clear 51 10.6 38 3.3 61 61 N N/A 30.07 1018 10 16 N/A
9:53 pm 21:53 Clear 47 8.3 39 3.9 74 74 SSW 3 6 30.07 1018 10 16 N/A
10:53 pm 22:53 Clear 47 8.3 40 4.4 77 77 SSW 9 15 30.07 1018 10 16 N/A
11:53 pm 23:53 Clear 47 8.3 40 4.4 77 77 SW 3 6 30.06 1018 10 16 N/A

Powered by AerisWeather